CW0730 Weather Reports


Display with metric or nautical units.
time (UTC)temp
F
wind
direction
speed
MPH
gust
MPH
rain 1hr
in
rain 24hr
in
rain mn
in
humidity
%
barometer
mb
20260902043052 57 17 3.0 5.0 0.00 0.00 0.00 92 1018.7
20260902041603 58 24 2.0 3.0 0.00 0.00 0.00 91 1018.6
20260902040046 58 22 2.0 3.0 0.00 0.00 0.00 90 1018.5
20260902034541 58 15 2.0 4.0 0.00 0.00 0.00 89 1018.3
20260902033042 59 92 0.0 2.0 0.00 0.00 0.00 89 1018.4
20260902031539 59 92 1.0 2.0 0.00 0.00 0.00 88 1018.2
20260902030041 59 92 0.0 0.0 0.00 0.00 0.00 87 1018.2
20260902024544 60 92 0.0 1.0 0.00 0.00 0.00 86 1018.3
20260902023044 61 92 0.0 2.0 0.00 0.00 0.00 85 1018.3
20260902021546 60 64 0.0 2.0 0.00 0.00 0.00 86 1018.3
20260902020038 60 65 0.0 2.0 0.00 0.00 0.00 86 1018.3
20260902014541 61 65 0.0 3.0 0.00 0.00 0.00 86 1018.2
20260902013036 61 65 1.0 4.0 0.00 0.00 0.00 84 1018.2
20260902011535 61 81 1.0 3.0 0.00 0.00 0.00 84 1018.0
20260902010035 61 78 1.0 4.0 0.00 0.00 0.00 83 1017.9
20260902004534 62 56 1.0 4.0 0.00 0.00 0.00 85 1017.8
20260902003033 62 120 1.0 3.0 0.00 0.00 0.00 85 1017.7
20260902001532 63 131 2.0 3.0 0.00 0.00 0.00 83 1017.8
20260902000031 63 131 0.0 2.0 0.00 0.00 0.00 81 1017.6
20260901234531 64 131 0.0 2.0 0.00 0.00 0.00 80 1017.6
20260901233049 64 150 1.0 4.0 0.00 0.00 0.00 79 1017.5
20260901231529 65 129 2.0 4.0 0.00 0.00 0.00 78 1017.4
20260901230034 65 148 3.0 7.0 0.00 0.00 0.00 78 1017.3
20260901224527 66 162 6.0 9.0 0.00 0.00 0.00 77 1017.0
20260901223026 67 153 4.0 6.0 0.00 0.00 0.00 77 1016.9
20260901221531 68 158 4.0 7.0 0.00 0.00 0.00 77 1016.9
20260901220024 68 176 5.0 8.0 0.00 0.00 0.00 77 1016.9
20260901214535 68 171 4.0 7.0 0.00 0.00 0.00 78 1016.8
20260901213024 67 185 5.0 11.0 0.00 0.00 0.00 81 1016.6
20260901211522 67 175 6.0 9.0 0.00 0.00 0.00 81 1016.5
20260901210023 67 203 7.0 9.0 0.00 0.00 0.00 81 1016.4
20260901204521 67 170 6.0 12.0 0.00 0.00 0.00 82 1016.3
20260901203020 67 210 7.0 12.0 0.00 0.00 0.00 80 1016.2
20260901201519 68 198 7.0 12.0 0.00 0.00 0.00 79 1016.1
20260901200031 68 194 9.0 13.0 0.00 0.00 0.00 78 1016.3
20260901194519 71 180 9.0 15.0 0.00 0.00 0.00 70 1016.3
20260901193018 71 156 11.0 16.0 0.00 0.00 0.00 62 1016.3
20260901191518 71 171 11.0 17.0 0.00 0.00 0.00 61 1016.2
20260901190020 71 157 11.0 18.0 0.00 0.00 0.00 63 1016.2
20260901184519 71 153 10.0 17.0 0.00 0.00 0.00 63 1016.1
20260901183018 71 153 10.0 16.0 0.00 0.00 0.00 64 1016.1
20260901181519 69 173 7.0 12.0 0.00 0.00 0.00 76 1016.1
20260901180015 69 221 9.0 12.0 0.00 0.00 0.00 77 1016.1
20260901174515 70 198 7.0 11.0 0.00 0.00 0.00 73 1016.0
20260901173014 71 218 6.0 10.0 0.00 0.00 0.00 75 1016.0
20260901171520 71 186 5.0 8.0 0.00 0.00 0.00 74 1016.1
20260901170014 70 158 4.0 9.0 0.00 0.00 0.00 76 1016.0
20260901164514 69 213 5.0 10.0 0.00 0.00 0.00 77 1015.9
20260901163015 69 224 4.0 10.0 0.00 0.00 0.00 76 1015.9
20260901161512 71 162 4.0 7.0 0.00 0.00 0.00 73 1016.1
20260901160012 74 174 3.0 6.0 0.00 0.00 0.00 66 1016.2
20260901154507 71 49 4.0 7.0 0.00 0.00 0.00 69 1016.3
20260901153007 70 309 2.0 4.0 0.00 0.00 0.00 73 1016.3
20260901151504 70 22 3.0 6.0 0.00 0.00 0.00 73 1016.2
20260901150006 69 103 2.0 6.0 0.00 0.00 0.00 75 1016.3
20260901144502 69 150 1.0 4.0 0.00 0.00 0.00 76 1016.3
20260901143102 69 129 3.0 5.0 0.00 0.00 0.00 73 1016.5
20260901141559 69 158 3.0 5.0 0.00 0.00 0.00 72 1016.6
20260901140105 68 103 2.0 5.0 0.00 0.00 0.00 74 1016.5
20260901134553 67 96 2.0 4.0 0.00 0.00 0.00 74 1016.6
20260901133048 64 72 1.0 6.0 0.00 0.00 0.00 78 1016.6
20260901131545 64 36 3.0 6.0 0.00 0.00 0.00 79 1016.3
20260901130043 63 358 3.0 6.0 0.00 0.00 0.00 80 1016.3
20260901124540 61 319 1.0 3.0 0.00 0.00 0.00 83 1016.3
20260901123041 61 356 3.0 6.0 0.00 0.00 0.00 84 1016.1
20260901121537 60 11 1.0 5.0 0.00 0.00 0.00 86 1016.4
20260901120028 59 7 0.0 3.0 0.00 0.00 0.00 87 1016.2
20260901114527 57 353 3.0 6.0 0.00 0.00 0.00 89 1016.1
20260901113023 56 323 2.0 4.0 0.00 0.00 0.00 91 1016.1
20260901111521 55 358 1.0 4.0 0.00 0.00 0.00 91 1016.0
20260901110022 56 323 1.0 3.0 0.00 0.00 0.00 89 1015.7
20260901104524 55 353 0.0 4.0 0.00 0.00 0.00 91 1015.6
20260901103014 55 359 3.0 6.0 0.00 0.00 0.00 91 1015.3
20260901101509 54 356 5.0 7.0 0.00 0.00 0.00 92 1015.5
20260901100007 54 360 4.0 5.0 0.00 0.00 0.00 93 1015.4
20260901094505 54 359 0.0 2.0 0.00 0.00 0.00 92 1015.6
20260901093001 54 352 0.0 3.0 0.00 0.00 0.00 92 1015.6
20260901091624 55 1 0.0 4.0 0.00 0.00 0.00 91 1015.5
20260901090058 55 360 1.0 5.0 0.00 0.00 0.00 90 1015.6
20260901084601 55 352 4.0 6.0 0.00 0.00 0.00 90 1015.7
20260901083058 55 360 3.0 5.0 0.00 0.00 0.00 89 1015.6
20260901081555 56 349 2.0 4.0 0.00 0.00 0.00 87 1015.6
20260901080101 56 352 2.0 4.0 0.00 0.00 0.00 89 1015.6
20260901074613 56 350 2.0 5.0 0.00 0.00 0.00 88 1015.8
20260901073054 56 338 0.0 5.0 0.00 0.00 0.00 89 1015.6
20260901071553 56 359 2.0 6.0 0.00 0.00 0.00 89 1015.8
20260901070104 56 349 2.0 4.0 0.00 0.00 0.00 89 1015.9
20260901064552 56 341 1.0 3.0 0.00 0.00 0.00 91 1016.0
20260901063101 56 341 0.0 0.0 0.00 0.00 0.00 91 1016.0
20260901061550 56 341 0.0 2.0 0.00 0.00 0.00 91 1015.9
20260901060048 56 327 2.0 3.0 0.00 0.00 0.00 90 1015.8
20260901054547 57 339 0.0 4.0 0.00 0.00 0.00 88 1015.7
20260901053110 57 326 1.0 4.0 0.00 0.00 0.00 88 1015.7
20260901051602 57 175 0.0 0.0 0.00 0.00 0.00 88 1015.8
20260901050040 58 175 0.0 0.0 0.00 0.00 0.00 87 1015.9
20260901044539 57 175 0.0 0.0 0.00 0.00 0.00 87 1015.9